When you browse on this site, cookies collect data to enhance your experience and personalize the content and advertising you see.
Visit our Privacy Policy to learn more. By continuing to use the site, you agree to this use of cookies and data.

Hourly Weather Georgetown

Today, 13 August, Thursday

Time Temperature Precipitation Wind Pressure Humidity
00:00 +29°C° 0.7 mm 4 mps 733 mmHg 71%
01:00 +28°C° 0 mm 6 mps 733 mmHg 79%
02:00 +28°C° 2.1 mm 5 mps 733 mmHg 81%
03:00 +27°C° 2.1 mm 4 mps 733 mmHg 84%
04:00 +27°C° 2.1 mm 3 mps 733 mmHg 87%
05:00 +27°C° 0.6 mm 3 mps 733 mmHg 85%
06:00 +27°C° 0.6 mm 4 mps 733 mmHg 83%
07:00 +28°C° 0 mm 5 mps 733 mmHg 84%
08:00 +27°C° 0.7 mm 5 mps 734 mmHg 85%
09:00 +27°C° 0.7 mm 5 mps 734 mmHg 85%
10:00 +27°C° 0.7 mm 5 mps 734 mmHg 86%
11:00 +28°C° 0.1 mm 4 mps 733 mmHg 81%
12:00 +28°C° 0.1 mm 3 mps 733 mmHg 75%
13:00 +32°C° 0 mm 7 mps 733 mmHg 64%
14:00 +32°C° 0.1 mm 6 mps 732 mmHg 66%
15:00 +32°C° 0.1 mm 5 mps 731 mmHg 67%
16:00 +32°C° 0.1 mm 4 mps 731 mmHg 68%
17:00 +30°C° 0.1 mm 5 mps 731 mmHg 72%
18:00 +30°C° 0.1 mm 5 mps 731 mmHg 77%
19:00 +29°C° 0.1 mm 5 mps 731 mmHg 81%
20:00 +29°C° 0.3 mm 5 mps 731 mmHg 82%
21:00 +29°C° 0.3 mm 6 mps 732 mmHg 82%
22:00 +28°C° 0.3 mm 6 mps 732 mmHg 83%
23:00 +28°C° 2 mm 6 mps 732 mmHg 83%

Tomorrow, 14 August, Friday

Time Temperature Precipitation Wind Pressure Humidity
00:00 +28°C° 2 mm 5 mps 732 mmHg 82%
01:00 +27°C° 2 mm 5 mps 732 mmHg 82%
02:00 +28°C° 0 mm 5 mps 732 mmHg 82%
03:00 +28°C° 0 mm 6 mps 731 mmHg 82%
04:00 +28°C° 0 mm 6 mps 731 mmHg 82%
05:00 +28°C° 0 mm 6 mps 731 mmHg 82%
06:00 +28°C° 0 mm 6 mps 732 mmHg 83%
07:00 +28°C° 0 mm 6 mps 732 mmHg 83%
08:00 +28°C° 0 mm 5 mps 732 mmHg 81%
09:00 +28°C° 0 mm 5 mps 732 mmHg 79%
10:00 +29°C° 0 mm 5 mps 733 mmHg 77%
11:00 +29°C° 0 mm 4 mps 732 mmHg 76%
12:00 +29°C° 0 mm 4 mps 732 mmHg 75%
13:00 +29°C° 0 mm 4 mps 732 mmHg 74%
14:00 +29°C° 0 mm 3 mps 731 mmHg 73%
15:00 +29°C° 0 mm 2 mps 730 mmHg 71%
16:00 +30°C° 0 mm 1 mps 730 mmHg 70%
17:00 +29°C° 0 mm 1 mps 730 mmHg 72%
18:00 +29°C° 0 mm 1 mps 731 mmHg 73%
19:00 +29°C° 0 mm 2 mps 731 mmHg 75%
20:00 +29°C° 0 mm 2 mps 731 mmHg 75%
21:00 +29°C° 0 mm 3 mps 732 mmHg 75%
22:00 +29°C° 0 mm 3 mps 732 mmHg 76%
23:00 +29°C° 0 mm 4 mps 732 mmHg 78%

Day after tomorrow, 15 August, Saturday

Time Temperature Precipitation Wind Pressure Humidity
00:00 +29°C° 0 mm 4 mps 732 mmHg 80%
01:00 +29°C° 0 mm 5 mps 732 mmHg 81%
02:00 +29°C° 0 mm 5 mps 732 mmHg 82%
03:00 +28°C° 0 mm 5 mps 732 mmHg 82%
04:00 +28°C° 0 mm 5 mps 731 mmHg 82%
05:00 +28°C° 0 mm 6 mps 732 mmHg 81%
06:00 +28°C° 0 mm 6 mps 732 mmHg 80%
07:00 +28°C° 0 mm 7 mps 733 mmHg 79%
08:00 +28°C° 0 mm 7 mps 733 mmHg 77%
09:00 +29°C° 0 mm 8 mps 733 mmHg 76%
10:00 +29°C° 0 mm 8 mps 733 mmHg 74%
11:00 +29°C° 0 mm 7 mps 733 mmHg 72%
12:00 +30°C° 0 mm 6 mps 732 mmHg 69%
13:00 +32°C° 0 mm 6 mps 732 mmHg 66%
14:00 +32°C° 0 mm 5 mps 731 mmHg 66%
15:00 +32°C° 0 mm 4 mps 731 mmHg 65%
16:00 +31°C° 0 mm 3 mps 730 mmHg 65%
17:00 +31°C° 0 mm 3 mps 730 mmHg 66%
18:00 +31°C° 0 mm 2 mps 730 mmHg 67%
19:00 +31°C° 0 mm 2 mps 731 mmHg 69%
20:00 +31°C° 0 mm 2 mps 731 mmHg 69%
21:00 +31°C° 0 mm 3 mps 731 mmHg 70%
22:00 +32°C° 0 mm 4 mps 732 mmHg 71%
23:00 +30°C° 0 mm 5 mps 732 mmHg 71%

16 August, Sunday

Time Temperature Precipitation Wind Pressure Humidity
00:00 +30°C° 0 mm 5 mps 731 mmHg 72%
01:00 +30°C° 0 mm 6 mps 731 mmHg 73%
02:00 +30°C° 0 mm 6 mps 731 mmHg 74%
03:00 +30°C° 0 mm 7 mps 730 mmHg 74%
04:00 +29°C° 0 mm 7 mps 730 mmHg 75%
05:00 +29°C° 0 mm 8 mps 730 mmHg 76%
06:00 +29°C° 0 mm 8 mps 731 mmHg 76%
07:00 +29°C° 0 mm 9 mps 731 mmHg 77%
08:00 +29°C° 0 mm 8 mps 732 mmHg 75%
09:00 +31°C° 0 mm 8 mps 732 mmHg 74%
10:00 +31°C° 0 mm 8 mps 732 mmHg 72%
11:00 +30°C° 0 mm 7 mps 732 mmHg 70%
12:00 +32°C° 0 mm 6 mps 732 mmHg 68%
13:00 +32°C° 0 mm 5 mps 732 mmHg 67%
14:00 +32°C° 0 mm 4 mps 731 mmHg 67%
15:00 +32°C° 0 mm 4 mps 730 mmHg 67%
16:00 +32°C° 0 mm 4 mps 730 mmHg 67%
17:00 +32°C° 0.1 mm 4 mps 730 mmHg 70%
18:00 +32°C° 0.1 mm 4 mps 730 mmHg 72%
19:00 +30°C° 0.1 mm 3 mps 731 mmHg 74%
20:00 +30°C° 0.1 mm 4 mps 731 mmHg 74%
21:00 +30°C° 0.1 mm 4 mps 731 mmHg 73%
22:00 +30°C° 0.1 mm 5 mps 732 mmHg 73%
23:00 +30°C° 0.1 mm 5 mps 731 mmHg 74%

17 August, Monday

Time Temperature Precipitation Wind Pressure Humidity
00:00 +30°C° 0.1 mm 6 mps 731 mmHg 76%
01:00 +29°C° 0.1 mm 7 mps 731 mmHg 78%
02:00 +29°C° 0 mm 7 mps 730 mmHg 79%
03:00 +29°C° 0 mm 8 mps 730 mmHg 80%
04:00 +29°C° 0 mm 8 mps 730 mmHg 80%
05:00 +29°C° 0 mm 8 mps 730 mmHg 80%
06:00 +29°C° 0 mm 8 mps 731 mmHg 80%
07:00 +29°C° 0 mm 8 mps 731 mmHg 80%
08:00 +29°C° 0 mm 8 mps 731 mmHg 78%
09:00 +29°C° 0 mm 8 mps 732 mmHg 76%
10:00 +31°C° 0 mm 8 mps 732 mmHg 74%
11:00 +30°C° 0 mm 7 mps 731 mmHg 72%
12:00 +32°C° 0 mm 6 mps 731 mmHg 69%
13:00 +32°C° 0 mm 5 mps 730 mmHg 67%
14:00 +33°C° 0 mm 3 mps 730 mmHg 66%
15:00 +32°C° 0 mm 2 mps 729 mmHg 64%
16:00 +32°C° 0 mm 1 mps 729 mmHg 63%
17:00 +32°C° 0 mm 2 mps 729 mmHg 64%
18:00 +33°C° 0 mm 3 mps 730 mmHg 65%
19:00 +31°C° 0 mm 3 mps 730 mmHg 65%
20:00 +30°C° 0.8 mm 6 mps 731 mmHg 70%
21:00 +29°C° 0.8 mm 8 mps 732 mmHg 76%
22:00 +28°C° 0.8 mm 10 mps 732 mmHg 81%
23:00 +28°C° 0.2 mm 10 mps 732 mmHg 80%

18 August, Tuesday

Time Temperature Precipitation Wind Pressure Humidity
00:00 +28°C° 0.2 mm 10 mps 732 mmHg 79%
01:00 +28°C° 0.2 mm 9 mps 732 mmHg 78%
02:00 +28°C° 0 mm 9 mps 732 mmHg 78%
03:00 +28°C° 0 mm 9 mps 731 mmHg 79%
04:00 +28°C° 0 mm 9 mps 731 mmHg 80%
05:00 +28°C° 0 mm 8 mps 731 mmHg 78%
06:00 +28°C° 0 mm 7 mps 732 mmHg 77%
07:00 +28°C° 0 mm 6 mps 732 mmHg 76%
08:00 +28°C° 0 mm 6 mps 732 mmHg 73%
09:00 +29°C° 0 mm 7 mps 732 mmHg 71%
10:00 +29°C° 0 mm 7 mps 733 mmHg 69%
11:00 +29°C° 0 mm 6 mps 732 mmHg 67%
12:00 +30°C° 0 mm 5 mps 732 mmHg 66%
13:00 +30°C° 0 mm 4 mps 731 mmHg 64%
14:00 +30°C° 0 mm 4 mps 731 mmHg 65%
15:00 +30°C° 0 mm 4 mps 730 mmHg 65%
16:00 +30°C° 0 mm 4 mps 730 mmHg 66%
17:00 +30°C° 0 mm 2 mps 730 mmHg 68%
18:00 +30°C° 0 mm 1 mps 730 mmHg 69%
19:00 +28°C° 0 mm 0 mps 730 mmHg 71%
20:00 +28°C° 0 mm 0 mps 730 mmHg 71%
21:00 +29°C° 0 mm 1 mps 731 mmHg 71%
22:00 +29°C° 0 mm 1 mps 732 mmHg 71%
23:00 +29°C° 0 mm 1 mps 731 mmHg 71%
Show more